Back to catalog

ONEWEB-0040

AliveCommunicationsPO
NORAD 45147·PAYLOAD·🇬🇧 United Kingdom

Launched Feb 6, 2020 from Baikonur Cosmodrome

Loading…

Next Passes (next 24 hours)

TLE

FreshSource: CelesTrak SupGP

Epoch: Sep 14, 2026, 09:26 UTC

1 45147C 20008S   26257.39359213 -.00002439  00000+0 -69953-2 0  2578
2 45147  87.8910  18.5129 0001726 110.6040 279.4979 13.10383179    14

Track ONEWEB-0040 in real time with AllMySat

Download on the App Store